Tracking 21611 objects as of 21-Oct-2020
HD Live streaming from Space Station
objects crossing your sky now

GONETS D1 1

Track GONETS D1 1 now!
10-day predictions
GONETS D1 1 is classified as:


NORAD ID: 23787
Int'l Code: 1996-009A
Perigee: 1,404.1 km
Apogee: 1,422.8 km
Inclination: 82.6 °
Period: 113.9 minutes
Semi major axis: 7784 km
RCS: 1.0298 m2 (large)
Launch date: February 19, 1996
Source: Commonwealth of Independent States (former USSR) (CIS)
Launch site: PLESETSK MISSILE AND SPACE COMPLEX (PKMTR)

Commercial version of Strela (GRU) military system; store and forward communications satellites; will operate until 2004 or 2005; not a successful commercial venture.
aabbcc
Your satellite tracking list
Your tracking list is empty




NASA's NSSDC Master Catalog

Two Line Element Set (TLE):
1 23787U 96009A   20294.72421281 +.00000017 +00000-0 +33420-4 0  9999
2 23787 082.5799 181.4120 0011968 056.0725 304.1513 12.64042373138344
Source of the keplerian elements: AFSPC